Regional Weather Roundup
Issued by NWS

Home | Current Version | Previous Version | Graphics & Text | Print | Product List | Glossary On
Versions: 1 2 3 4 5 6 7 8 9 10 11 12 13 14 15 16 17 18 19 20 21 22 23 24 25 26 27 28 29 30 31 32 33 34 35 36 37 38 39 40 41 42 43 44 45 46 47 48 49 50
000
ASUS43 KDTX 301110
RWRMI
MICHIGAN HOURLY REGIONAL WEATHER ROUNDUP
NATIONAL WEATHER SERVICE DETROIT/PONTIAC MI
700 AM EDT SUN AUG 30 2015

NOTE: "FAIR" INDICATES FEW OR NO CLOUDS BELOW 12,000 FEET WITH NO
SIGNIFICANT WEATHER AND/OR OBSTRUCTION TO VISIBILITY.

MIZ047>049-052>055-059>063-066>070-074>076-081>083-301200-
SOUTHEAST LOWER MICHIGAN

CITY           SKY/WX    TMP DP  RH WIND       PRES   REMARKS
ADRIAN         CLOUDY    66  64  93 CALM      30.07R FOG
ALMA           CLOUDY    64  64  99 CALM      30.06R FOG
ANN ARBOR      CLOUDY    66  65  96 CALM      30.06R FOG
BAD AXE        CLOUDY    63  62  97 CALM      30.07S FOG
DETROIT CITY   CLOUDY    68  65  90 CALM      30.06R
DETROIT        FOG       68  66  93 CALM      30.06R VSB 1/4
FLINT          CLOUDY    68  64  87 CALM      30.05S FOG
GROSSE ILE     CLOUDY    70  68  94 S3        30.04S FOG
HILLSDALE      CLOUDY    66  66 100 S5        30.07R FOG
HOWELL         CLOUDY    66  66  98 SE3       30.06R FOG

CITY           SKY/WX    TMP DP  RH WIND       PRES   REMARKS
JACKSON        CLOUDY    66  65  96 CALM      30.06R FOG
LAMBERTVILLE   CLOUDY    69  66  91 CALM      30.07R FOG
LANSING        CLOUDY    66  65  96 CALM      30.05R FOG
LAPEER         NOT AVBL
MASON          CLOUDY    66  63  89 S3        30.06R FOG
MONROE         CLOUDY    69  68  97 S5        30.05R FOG
MT. CLEMENS    CLOUDY    65  64  98 NE2       30.04S FOG
PONTIAC        LGT RAIN  66  65  96 N5        30.06R FOG
PORT HOPE        N/A     65  63  93 CALM      30.05S
PORT HURON     CLOUDY    64  64 100 CALM      30.07R FOG
TRI CITIES     CLOUDY    66  63  90 E5        30.06S FOG
YPSILANTI      CLOUDY    69  65  86 CALM      30.06R FOG
$$
MIZ043>046-050>051-056>058-064>065-071>073-077>080-301200-
SOUTHWEST LOWER MICHIGAN

CITY           SKY/WX    TMP DP  RH WIND       PRES   REMARKS
BATTLE CREEK   CLOUDY    67  65  93 S6        30.05R FOG
BENTON HARBOR  FOG       66  65  96 CALM      30.03R VSB 3/4
BIG RAPIDS     CLOUDY    63  62  97 CALM      30.04F FOG
COLDWATER      CLOUDY    67  66  97 CALM      30.05R FOG
HOLLAND        CLOUDY    68  65  90 CALM      30.04R FOG
GRAND RAPIDS   CLOUDY    66  65  96 NE3       30.04R FOG
KALAMAZOO      CLOUDY    67  65  93 S5        30.04R FOG
MARSHALL       CLOUDY    66  65  97 CALM      30.05R FOG
MUSKEGON       CLOUDY    66  63  90 CALM      30.03S FOG
$$
MIZ016>042-301200-
NORTHERN LOWER MICHIGAN

CITY           SKY/WX    TMP DP  RH WIND       PRES   REMARKS
ALPENA         FOG       54  52  93 CALM      30.07R VSB 1/4
BEAVER ISLAND    N/A     59  58  97 CALM      30.05R FOG
BELLAIRE       FOG       57  56  96 CALM      30.06R VSB 1/4
CADILLAC       CLOUDY    58  57  95 S3        30.06R FOG
CHARLEVOIX     FOG       56  56 100 SE3       30.08R VSB 1
FRANKFORT      CLOUDY    56  55  99 CALM      30.05S FOG
GAYLORD        FOG       53  53 100 CALM      30.07S VSB 1/4
GRAYLING       FOG       52  52  99 CALM      30.08R VSB 1/2
HARBOR SPRINGS FOG       57  57  99 CALM      30.06R VSB 1/4
HOUGHTON LAKE  CLOUDY    55  54  96 CALM      30.07S
MANISTEE       CLOUDY    57  54  88 CALM      30.06R VSB 3/4
OSCODA         MOCLDY    56  56  99 CALM      30.06R
PELLSTON       FOG       50  50 100 CALM      30.06R VSB 1/2
TRAVERSE CITY  FOG       58  55  90 CALM      30.05R VSB 1/4
$$
MIZ007>008-015-301200-
EASTERN UPPER MICHIGAN

CITY           SKY/WX    TMP DP  RH WIND       PRES   REMARKS
KINROSS        CLOUDY    61  59  94 CALM      30.04S
MACKINAC ISLAN CLOUDY    62  61  97 SW5       30.05R FOG
NEWBERRY       FOG       59  59  99 SW8       30.03R VSB 1/2
S. S. MARIE    CLOUDY    60  59  96 SE3       30.04S FOG
$$
MIZ004>006-011>014-085-301200-
CENTRAL UPPER MICHIGAN

CITY           SKY/WX    TMP DP  RH WIND       PRES   REMARKS
MANISTIQUE     PTCLDY    59  58  97 S5        30.03S FOG
ESCANABA         N/A     55  55 100 CALM      30.03S VSB 1/4
MENOMINEE      CLEAR     55  52  88 CALM      30.04S
SAWYER-GWINN   FOG       57  57 100 S5        30.02S VSB 1/4
$$
MIZ001>003-009>011-084-301200-
WESTERN UPPER MICHIGAN

CITY           SKY/WX    TMP DP  RH WIND       PRES   REMARKS
IRON MOUNTAIN  CLOUDY    59  58  96 W5        30.03S FOG
HOUGHTON       FOG       60  59  96 SW3       29.96S VSB 1/4
IRONWOOD       CLOUDY    63  61  94 S6        29.97S
$$

ABBREVIATIONS USED IN REMARKS
   TC - TEMPERATURE IN CELSIUS
  WCI - WIND CHILL INDEX
   HX - HEAT INDEX
  VSB - VISIBILITY




USA.gov is the U.S. government's official web portal to all federal, state and local government web resources and services.